Погода в Веселом

Россия / Республика Адыгея     44°16′09″N   40°17′09″E
темп.,
°C
ветер,
м/с
пор.,
м/с
влажн.,
%
обл.,
%
осадки,
мм/ч
давл.,
гПа
погр.,
м
1 декабря, ср
ср100:00+6зюз4138595 7.5 10001383
03:00+5ююз52285100 15.5 9992110
06:00+3зюз7177699 1.8 10041662
09:00+2зсз498525 1.9 1007663
12:00+4зсз576935 0.1 1008994
15:00+5юз38552 0.1 10081397
18:00+1ююз2482100 0.0 100987
21:00+2зюз3137596 0.8 10091044
2 декабря, чт
чт200:00+1юз239330 0.3 1011114
03:00+1з149896 1.2 1013210
06:00+2зсз2698100 2.4 1015450
09:00+2зсз139682 2.9 1018336
12:00+4ссз127983 0.1 1018615
15:00+5в117314 0.1 1018427
18:00+1ю22902 0.0 102137
21:00−1ю22845 0.0 102143
3 декабря, пт
пт300:000ю22765 0.0 102137
03:000ю227380 0.0 102029
06:00+1ю2273100 0.0 101926
09:00+3ююз227079 0.0 101933
12:00+9сз11515 0.0 1017241
15:00+9с11642 0.0 101721
18:00+3ю22805 0.0 101926
21:00+2ю337214 0.0 102042
4 декабря, сб
сб400:00+2ю3469100 0.0 102046
03:00+2ю336855 0.0 102043
06:00+2ю337072 0.0 101940
09:00+5ю33688 0.0 101852
12:00+11ю12586 0.0 1015148
15:00+11ю116611 0.0 101419
18:00+6ю337448 0.0 101535
21:00+6ю3268100 0.0 101538
5 декабря, вс
вс500:00+6ю3368100 0.0 101436
03:00+6ююз2267100 0.0 101420
06:00+6ююв2268100 0.0 101419
09:00+7ююв1168100 0.0 101515
12:00+10зсз0160100 0.0 1013159
15:00+10сз1166100 0.0 101450
18:00+6ююз227741 0.0 101613
21:00+7ю228399 0.3 101658